Location: ?????????
(38.0736°N, 23.2119°E)
Time: 14:38:29
(UTC+00:00)

Cosmos 1980 Rocket - Pass Details

Date: 18 April 2024
Orbit: 827 x 851 km, 71.0° (Epoch: 19 May)

Event Time Altitude Azimuth Distance (km) Brightness Sun altitude
Exits shadow 20:13:15 23° 36° (NE) 1,732 3.9 -31.7°
Drops below altitude 10° 20:15:15 10° 30° (NNE) 2,456 4.8 -32.0°
Sets 20:17:44 0° 27° (NNE) 3,398 5.6 -32.3°
